Accueil
METAR-TAF:

METAR-TAF

Aéroports :

Andora, Italie

Capo Mele

latitude: 43-57N, longitude: 008-10E, altitude: 220 m

Observation

Le bulletin a été fait il y a 1 heure et 21 minutes, à 09:55 UTC
Vent 11 kt de sud/sud-ouest
Température 13°C
Humidité 82%
Pression 1013 hPa
Visibilité 10 km ou plus
Quelques nuages à une hauteur de 1800 ft

METAR: LIMU 250955Z 21011KT 9999 FEW018 13/10 Q1013 RMK BKN SCT060 QUK 2 QUL 1 S VIS MAR 10 KM VIS MIN 9999

Heure: 12:16 (11:16 UTC)


TAF: absent

Observations et prévisions météorologiques de plus de 4000 aéroports (messages METAR et TAF).

Les stations disponibles sont représentées par des disques jaunes et rouges sur la carte.

Passer la souris dessus pour voir le nom de la station.

Cliquer dessus pour voir les observations et prévisions météorologiques.

Pour changer de carte: cliquez sur les boutons verts avec une croix noire pour zoomer, sur le bouton vert avec un tiret pour effectuer un zoom arrière, ou sur les flèches vertes pour les cartes adjacentes.


METAR-TAF: